Location: Unspecified
(0.0000°N, 0.0000°E)
Time: 03:16:20
(UTC+00:00)

Vanguard 1 - Pass Details

Date: 21 December 2018
Orbit: 650 x 3833 km, 34.3° (Epoch: 16 January)

Event Time Altitude Azimuth Distance (km) Brightness Sun altitude
Rises 21:17:09 0° 223° (SW) 7,781 15.4 -44.4°
Reaches altitude 10° 21:24:41 10° 211° (SSW) 6,390 14.7 -46.0°
Maximum altitude 21:38:52 25° 163° (SSE) 4,119 13.2 -48.8°
Enters shadow 21:42:08 23° 145° (SE) 3,917 13.0 -49.5°
